Weather History for New Delhi, India

Change the Weather History Date:

Tuesday, August 19, 2014

  Actual Average Record
Temperature  
Mean Temperature 90 °F -  
Max Temperature 98 °F 91 °F 98 °F (1999)
Min Temperature 82 °F 77 °F 78 °F (1996)
Cooling Degree Days 25    
Growing Degree Days 40 (Base 50)    
Moisture  
Dew Point 73 °F    
Average Humidity 56    
Maximum Humidity 79    
Minimum Humidity 39    
Precipitation  
Precipitation 0.00 in - - ()
Sea Level Pressure  
Sea Level Pressure 29.74 in    
Wind  
Wind Speed 4 mph ()    
Max Wind Speed 14 mph    
Max Gust Speed -    
Visibility 2.3 miles    
Events      
Averages and records for this station are not official NWS values.
T = Trace of Precipitation, MM = Missing Value Source: Averaged Metar Reports

Daily Weather History Graph

Daily Weather History Graph

Search for Another Location

Airport:

Trip Planner

Search our weather history database for the weather conditions in past years. The results will help you decide how hot, cold, wet, or windy it might be!

Date:

Astronomy

Aug. 19, 2014 Rise Set
Actual Time 5:52 AM IST 6:57 PM IST
Civil Twilight 5:28 AM IST 7:21 PM IST
Nautical Twilight 4:59 AM IST 7:50 PM IST
Astronomical Twilight 4:29 AM IST 8:20 PM IST
Moon 12:30 AM IST (8/19) 2:21 PM IST (8/19)
Length of Visible Light 13h 53m
Length of Day
13h 04m
Waning Crescent, 33% of the Moon is Illuminated
Aug 19
Waning Crescent
Aug 25
New
Sep 2
First Quarter
Sep 9
Full
Sep 16
Last Quarter

Hourly Weather History & Observations

Time (IST) Temp. Heat Index Dew Point Humidity Pressure Visibility Wind Dir Wind Speed Gust Speed Precip Events Conditions
12:00 AM 89.6 °F 96.2 °F 71.6 °F 55% 29.77 in 2.2 mi North 3.5 mph - N/A   Haze
12:30 AM 87.8 °F 93.8 °F 71.6 °F 58% 29.74 in 2.2 mi Calm Calm - N/A   Haze
1:00 AM 87.8 °F 93.8 °F 71.6 °F 58% 29.77 in 2.2 mi Calm Calm - N/A   Haze
1:30 AM 87.8 °F 95.6 °F 73.4 °F 62% 29.77 in 2.2 mi Calm Calm - N/A   Haze
2:00 AM 86.0 °F 93.4 °F 73.4 °F 66% 29.74 in 2.2 mi Calm Calm - N/A   Haze
2:30 AM 86.0 °F 93.4 °F 73.4 °F 66% 29.74 in 2.2 mi Calm Calm - N/A   Haze
3:00 AM 86.0 °F 93.4 °F 73.4 °F 66% 29.74 in 2.2 mi Calm Calm - N/A   Haze
3:30 AM 86.0 °F 93.4 °F 73.4 °F 66% 29.74 in 2.2 mi Calm Calm - N/A   Haze
4:00 AM 86.0 °F 93.4 °F 73.4 °F 66% 29.74 in 2.2 mi Calm Calm - N/A   Haze
4:30 AM 86.0 °F 93.4 °F 73.4 °F 66% 29.74 in 2.2 mi Calm Calm - N/A   Haze
5:00 AM 84.2 °F 90.9 °F 73.4 °F 70% 29.74 in 2.2 mi Calm Calm - N/A   Haze
5:30 AM 84.2 °F 90.9 °F 73.4 °F 70% 29.74 in 2.2 mi Calm Calm - N/A   Haze
6:00 AM 84.2 °F 92.3 °F 75.2 °F 74% 29.77 in 2.2 mi Calm Calm - N/A   Haze
6:30 AM 82.4 °F 89.5 °F 75.2 °F 79% 29.77 in 2.2 mi Calm Calm - N/A   Scattered Clouds
7:00 AM 82.4 °F 89.5 °F 75.2 °F 79% 29.77 in 2.2 mi Calm Calm - N/A   Scattered Clouds
7:30 AM 84.2 °F 90.9 °F 73.4 °F 70% 29.80 in 2.2 mi West 3.5 mph - N/A   Haze
8:00 AM 86.0 °F 93.4 °F 73.4 °F 66% 29.80 in 2.2 mi WSW 4.6 mph - N/A   Haze
8:30 AM 87.8 °F 97.6 °F 75.2 °F 66% 29.80 in 2.2 mi West 5.8 mph - N/A   Haze
9:00 AM 89.6 °F 99.8 °F 75.2 °F 62% 29.80 in 2.2 mi WSW 6.9 mph - N/A   Haze
9:30 AM 91.4 °F 102.5 °F 75.2 °F 59% 29.80 in 2.2 mi West 9.2 mph - N/A   Haze
10:00 AM 91.4 °F 102.5 °F 75.2 °F 59% 29.80 in 2.2 mi West 6.9 mph - N/A   Haze
10:30 AM 93.2 °F 105.0 °F 75.2 °F 56% 29.80 in 2.2 mi West 6.9 mph - N/A   Haze
11:00 AM 93.2 °F 105.0 °F 75.2 °F 56% 29.80 in 2.2 mi West 6.9 mph - N/A   Haze
11:30 AM 93.2 °F 105.0 °F 75.2 °F 56% 29.80 in 2.2 mi West 6.9 mph - N/A   Haze
12:00 PM 95.0 °F 104.5 °F 73.4 °F 49% 29.77 in 2.2 mi West 6.9 mph - N/A   Haze
12:30 PM 96.8 °F 107.3 °F 73.4 °F 47% 29.77 in 2.5 mi NW 11.5 mph - N/A   Haze
1:00 PM 96.8 °F 107.3 °F 73.4 °F 47% 29.77 in 2.5 mi WNW 11.5 mph - N/A   Haze
1:30 PM 98.6 °F 109.2 °F 73.4 °F 44% 29.77 in 2.5 mi WNW 13.8 mph - N/A   Haze
2:00 PM 98.6 °F 107.7 °F 71.6 °F 42% 29.74 in 2.5 mi WNW 13.8 mph - N/A   Haze
2:30 PM 98.6 °F 105.5 °F 69.8 °F 39% 29.71 in 2.5 mi WNW 11.5 mph - N/A   Haze
3:00 PM 98.6 °F 105.5 °F 69.8 °F 39% 29.71 in 2.5 mi WNW 12.7 mph - N/A   Haze
3:30 PM 98.6 °F 107.7 °F 71.6 °F 42% 29.71 in 2.5 mi WNW 10.4 mph - N/A   Haze
4:00 PM 96.8 °F 103.1 °F 69.8 °F 41% 29.68 in 2.8 mi WNW 12.7 mph - N/A   Haze
4:30 PM 96.8 °F 103.1 °F 69.8 °F 41% 29.68 in 2.8 mi WNW 11.5 mph - N/A   Haze
5:30 PM 96.8 °F 103.1 °F 69.8 °F 41% 29.68 in 3.1 mi NW 11.5 mph - N/A   Haze
6:00 PM 96.8 °F 103.1 °F 69.8 °F 41% 29.68 in 3.1 mi NW 10.4 mph - N/A   Haze
6:30 PM 95.0 °F 101.3 °F 69.8 °F 44% 29.65 in 2.5 mi NW 10.4 mph - N/A   Haze
7:00 PM 95.0 °F 101.3 °F 69.8 °F 44% 29.68 in - NW 10.4 mph - N/A   Haze
8:00 PM 93.2 °F 98.8 °F 69.8 °F 46% 29.68 in 1.9 mi NNW 8.1 mph - N/A   Haze
8:30 PM 93.2 °F 98.8 °F 69.8 °F 46% 29.68 in 1.9 mi NW 8.1 mph - N/A   Haze
9:00 PM 93.2 °F 100.5 °F 71.6 °F 49% 29.68 in 1.9 mi NW 6.9 mph - N/A   Haze
9:30 PM 91.4 °F 98.4 °F 71.6 °F 52% 29.68 in 1.9 mi NNW 6.9 mph - N/A   Haze
10:00 PM 91.4 °F 98.4 °F 71.6 °F 52% 29.68 in 1.9 mi NNW 6.9 mph - N/A   Haze
10:30 PM 91.4 °F 98.4 °F 71.6 °F 52% 29.71 in 1.9 mi NNW 6.9 mph - N/A   Haze
11:00 PM 91.4 °F 98.4 °F 71.6 °F 52% 29.68 in 1.9 mi NNW 4.6 mph - N/A   Haze
11:30 PM 91.4 °F 98.4 °F 71.6 °F 52% 29.68 in 1.9 mi West 4.6 mph - N/A   Haze